TimePDT,TemperatureF,Dew PointF,Humidity,Sea Level PressureIn,VisibilityMPH,Wind Direction,Wind SpeedMPH,Gust SpeedMPH,PrecipitationIn,Events,Conditions,WindDirDegrees,DateUTC
12:53 AM,53.1,50.0,89,30.06,9.0,Calm,Calm,-,N/A,,Clear,0,2012-11-03 07:53:00
1:53 AM,52.0,48.9,89,30.07,9.0,Calm,Calm,-,N/A,,Clear,0,2012-11-03 08:53:00
2:53 AM,51.1,48.9,92,30.08,10.0,Calm,Calm,-,N/A,,Clear,0,2012-11-03 09:53:00
3:53 AM,50.0,48.0,93,30.08,8.0,Calm,Calm,-,N/A,,Clear,0,2012-11-03 10:53:00
4:53 AM,50.0,46.9,89,30.09,10.0,Calm,Calm,-,N/A,,Clear,0,2012-11-03 11:53:00
5:53 AM,50.0,46.9,89,30.11,10.0,Calm,Calm,-,N/A,,Clear,0,2012-11-03 12:53:00
6:53 AM,48.9,46.0,90,30.11,5.0,Calm,Calm,-,N/A,,Clear,0,2012-11-03 13:53:00
7:53 AM,48.9,46.0,90,30.13,8.0,Calm,Calm,-,N/A,,Clear,0,2012-11-03 14:53:00
8:53 AM,53.1,50.0,89,30.15,10.0,Calm,Calm,-,N/A,,Clear,0,2012-11-03 15:53:00
9:53 AM,59.0,52.0,78,30.15,10.0,Calm,Calm,-,N/A,,Clear,0,2012-11-03 16:53:00
10:53 AM,62.1,53.1,72,30.16,10.0,NW,4.6,-,N/A,,Clear,320,2012-11-03 17:53:00
11:53 AM,66.9,53.1,61,30.14,10.0,NW,6.9,-,N/A,,Clear,320,2012-11-03 18:53:00
12:53 PM,69.1,51.1,53,30.12,10.0,NNW,9.2,-,N/A,,Clear,330,2012-11-03 19:53:00
1:53 PM,71.1,52.0,51,30.10,7.0,North,6.9,-,N/A,,Clear,360,2012-11-03 20:53:00
2:53 PM,70.0,51.1,51,30.09,5.0,NNW,8.1,-,N/A,,Haze,340,2012-11-03 21:53:00
3:53 PM,73.0,51.1,46,30.09,10.0,NNW,6.9,-,N/A,,Clear,340,2012-11-03 22:53:00
4:53 PM,73.0,51.1,46,30.09,10.0,NNE,3.5,-,N/A,,Clear,20,2012-11-03 23:53:00
5:53 PM,70.0,48.0,46,30.09,10.0,Calm,Calm,-,N/A,,Clear,0,2012-11-04 00:53:00
6:53 PM,62.1,51.1,67,30.11,6.0,Calm,Calm,-,N/A,,Haze,0,2012-11-04 01:53:00
7:53 PM,59.0,51.1,75,30.11,10.0,Calm,Calm,-,N/A,,Clear,0,2012-11-04 02:53:00
8:53 PM,57.2,51.8,82,30.12,10.0,Calm,Calm,-,N/A,,Clear,0,2012-11-04 03:53:00
9:53 PM,55.0,50.0,83,30.13,10.0,Calm,Calm,-,N/A,,Clear,0,2012-11-04 04:53:00
10:53 PM,55.9,51.1,84,30.14,10.0,Calm,Calm,-,N/A,,Clear,0,2012-11-04 05:53:00
11:53 PM,54.0,51.1,90,30.14,10.0,Calm,Calm,-,N/A,,Clear,0,2012-11-04 06:53:00